Regional Weather Roundup
Issued by NWS Charleston, WV

Home | Current Version | Previous Version | Graphics & Text | Print | Product List | Glossary On
Versions: 1 2 3 4 5 6 7 8 9 10 11 12 13 14 15 16 17 18 19 20 21 22 23 24 25 26 27 28 29 30 31 32 33 34 35 36 37 38 39 40 41 42 43 44 45 46 47 48 49 50
000
ASUS41 KRLX 311710
RWRRLX
West Virginia Regional Weather Roundup
National Weather Service Charleston WV
100 PM EDT MON AUG 31 2015

Note: "fair" indicates few or no clouds below 12,000 feet with no
significant weather and/or obstructions to visibility.

WVZ003-311800-
Northern Panhandle of West Virginia

CITY           SKY/WX    TMP DP  RH WIND       PRES   REMARKS
WHEELING       PTSUNNY   82  67  60 VRB3      30.13F
$$

WVZ009-311800-
Northwest West Virginia

CITY           SKY/WX    TMP DP  RH WIND       PRES   REMARKS
PARKERSBURG    PTSUNNY   84  64  50 W9        30.15F
$$

WVZ006-311800-
Western West Virginia

CITY           SKY/WX    TMP DP  RH WIND       PRES   REMARKS
HUNTINGTON     MOSUNNY   86  64  47 VRB6      30.14F
$$

WVZ015-311800-
West Central West Virginia

CITY           SKY/WX    TMP DP  RH WIND       PRES   REMARKS
CHARLESTON     MOSUNNY   84  66  54 CALM      30.14F
$$

WVZ022-031-311800-
North Central West Virginia

CITY           SKY/WX    TMP DP  RH WIND       PRES   REMARKS
CLARKSBURG     PTSUNNY   85  65  51 VRB5      30.14F
MORGANTOWN     MOSUNNY   84  64  50 W6        30.14F
$$

WVZ025-035-042-045-311800-
Southern West Virginia

CITY           SKY/WX    TMP DP  RH WIND       PRES   REMARKS
BECKLEY        PTSUNNY   77  63  61 NW5       30.22F
LOGAN          PTSUNNY   79  66  65 SW5       30.18F
BLUEFIELD      PTSUNNY   82  52  35 VRB3      30.24F
LEWISBURG      CLOUDY    79  60  51 CALM      30.20S
$$

WVZ047-311800-
Northern Mountains of West Virginia

CITY           SKY/WX    TMP DP  RH WIND       PRES   REMARKS
ELKINS         MOSUNNY   80  62  54 CALM      30.19F
$$

WVZ052-311800-
Eastern Panhandle of West Virginia

CITY           SKY/WX    TMP DP  RH WIND       PRES   REMARKS
MARTINSBURG    CLOUDY    85  67  54 N3        30.10F
PETERSBURG     PTSUNNY   83  63  49 S3        30.13F
$$


USA.gov is the U.S. government's official web portal to all federal, state and local government web resources and services.